Preview of NWS' New Version of Forecast
This preview is not operational and should not be used for support decisions.

Regional Weather Roundup (RWR)

Issued by National Weather Service (NWS)

                            
000
ASCA42 TJSJ 221610
RWRPR 
PUERTO RICO/U.S. VIRGIN ISLANDS HOURLY WEATHER ROUNDUP
NATIONAL WEATHER SERVICE SAN JUAN PR
1200 PM AST FRI MAR 22 2019

PRZ001>002-007>008-010-221700-
PUERTO RICO
  
CITY           SKY/WX    TMP DP  RH WIND       PRES   REMARKS
SAN JUAN LMM   LGT RAIN  82  72  69 NE15      30.03F                  
AGUADILLA      PTSUNNY   82  66  57 N6        30.05F                  
$$

VIZ001>002-221700-
U.S. VIRGIN ISLANDS
  
CITY           SKY/WX    TMP DP  RH WIND       PRES   REMARKS
CHARLOTTE AMA  SUNNY     82  70  65 SE17      30.04F                  
$$

HOURLY WEATHER ROUNDUP FOR THE NEWS MEDIA
  
CITY           SKY/WX    TMP DP  RH WIND       PRES   REMARKS
ORLANDO        FAIR      70  41  34 W14       30.10R                  
NEW YORK       LGT RAIN  43  40  89 NW18G25   29.36R                  
NEWARK         CLOUDY    44  37  76 NW21G31   29.37S                  
CHICAGO        PTSUNNY   45  26  47 N17       30.10R                  
HARTFORD       CLOUDY    40  40 100 N9        29.14F WCI  34          
BOSTON         LGT RAIN  41  37  86 NW12      29.13F FOG              
DALLAS         CLOUDY    66  38  35 SE12      30.19S                  
PHILADELPHIA   PTSUNNY   47  32  56 W22G29    29.51R                  
LOS ANGELES    PTSUNNY   56  48  74 E6        30.18S                  
WASHINGTON DC  PTSUNNY   46  32  58 NW18      29.67S